Flag for Russia

Past Weather in Petropavlovsk-Kamchatsky, Russia — Yesterday and Last 2 Weeks

Now
54 °F

Sprinkles. Mostly cloudy.


Feels Like: 53 °F
Forecast: 57 / 52 °F
Wind: 3 mph from South

Location: Petropavlovsk-Kamchatskij

Current Time: Aug 26, 2019 at 9:28:02 pm

Latest Report: Aug 26, 2019 at 9:00 pm


Visibility: N/A

Pressure: 29.71 "Hg

Humidity: 100%

Dew Point: 54 °F

Location of Petropavlovsk-KamchatskyLocation

Past Weather in Petropavlovsk-Kamchatsky — Graph

°F

Petropavlovsk-Kamchatsky Temperature Yesterday

Maximum temperature yesterday: 52 °F (at 12:00 am)
Minimum temperature yesterday: 48 °F (at 8:30 pm)
Average temperature yesterday: 50 °F

High & Low Weather Summary for the Past Weeks

 TemperatureHumidityPressure
High81 °F (Aug 12, 3:00 pm)100% (Aug 12, 1:00 am)30.18 "Hg (Aug 12, 1:00 am)
Low46 °F (Aug 26, 6:30 am)41% (Aug 16, 12:00 pm)29.47 "Hg (Aug 12, 4:00 pm)
Average58 °F84%29.88 "Hg
* Reported Aug 11 7:00 pm — Aug 26 7:30 pm, Petropavlovsk-Kamchatsky. Weather by CustomWeather, © 2019

Note: Actual official high and low records may vary slightly from our data, if they occured in-between our weather recording intervals... More about our weather records

Advertising

Petropavlovsk-Kamchatsky Weather History for the Previous 24 Hours

Scroll right to see more
 ConditionsComfort  
Time TempWeatherWind HumidityBarometerVisibility
7:30 pm
Mon, Aug 26
54 °FBroken clouds.6 mph100%29.68 "HgN/A
7:00 pm54 °FPartly sunny.6 mph100%29.68 "HgN/A
6:30 pm54 °FPartly sunny.6 mph100%29.68 "HgN/A
6:00 pm54 °FPartly sunny.8 mph100%29.68 "HgN/A
5:30 pm55 °FBroken clouds.6 mph94%29.68 "HgN/A
5:00 pm55 °FMore clouds than sun.8 mph94%29.68 "HgN/A
4:30 pm55 °FSprinkles. More clouds than sun.6 mph100%29.68 "HgN/A
4:00 pm55 °FMore clouds than sun.6 mph94%29.68 "HgN/A
3:30 pm55 °FMore clouds than sun.6 mph100%29.71 "HgN/A
3:00 pm55 °FSprinkles. More clouds than sun.No wind100%29.71 "HgN/A
2:30 pm54 °FSprinkles. More clouds than sun.No wind100%29.71 "HgN/A
2:00 pm54 °FSprinkles. More clouds than sun.No wind100%29.71 "Hg6 mi
1:30 pm52 °FSprinkles. More clouds than sun.1 mph100%29.71 "HgN/A
1:00 pm54 °FSprinkles. More clouds than sun.No wind100%29.74 "HgN/A
12:30 pm54 °FSprinkles. More clouds than sun.1 mph100%29.74 "HgN/A
12:00 pm52 °FSprinkles. More clouds than sun.1 mph100%29.74 "HgN/A
11:30 am52 °FSprinkles. More clouds than sun.3 mph100%29.74 "HgN/A
11:00 am52 °FSprinkles. More clouds than sun.6 mph100%29.77 "HgN/A
10:30 am50 °FSprinkles. Overcast.3 mph100%29.77 "HgN/A
10:00 am50 °FSprinkles. Overcast.6 mph100%29.77 "HgN/A
9:30 am48 °FSprinkles. Overcast.6 mph100%29.77 "HgN/A
9:00 am48 °FSprinkles. Partly sunny.6 mph100%29.77 "HgN/A
8:30 am48 °FOvercast.6 mph100%29.77 "HgN/A
8:00 am48 °FSprinkles. Low clouds.6 mph100%29.80 "HgN/A
7:30 am48 °FSprinkles. Low clouds.6 mph100%29.80 "HgN/A
7:00 am48 °FSprinkles. Partly sunny.6 mph100%29.80 "HgN/A
6:30 am46 °FSprinkles. Partly sunny.6 mph100%29.80 "HgN/A
6:00 am48 °FPassing clouds.6 mph100%29.80 "HgN/A
5:00 am48 °FPartly cloudy.6 mph100%29.80 "HgN/A
4:00 am48 °FSprinkles. Passing clouds.3 mph100%29.83 "HgN/A
3:00 am48 °FSprinkles. Overcast.3 mph100%29.86 "HgN/A
2:00 am48 °FPartly cloudy.8 mph100%29.89 "HgN/A
1:00 am48 °FPartly cloudy.3 mph100%29.89 "HgN/A
12:00 am48 °FPartly cloudy.3 mph100%29.92 "HgN/A
11:00 pm
Sun, Aug 25
48 °FSprinkles. Mostly cloudy.6 mph100%29.95 "HgN/A
10:00 pm48 °FSprinkles. Mostly cloudy.1 mph100%29.98 "HgN/A
9:00 pm48 °FSprinkles. Mostly cloudy.1 mph100%29.98 "HgN/A
Weather by CustomWeather, © 2019

See weather overview